| time (UTC) | temp C | wind direction | speed KPH | gust KPH | rain 1hr cm | rain 24hr cm | rain mn cm | humidity % | barometer mb |
| 20260505035059 | 15 | 25 | 0.0 | 0.0 | 0.00 | 0.00 | 0.00 | 63 | 1010.2 |
| 20260505034558 | 15 | 0 | 0.0 | 0.0 | 0.00 | 0.00 | 0.00 | 62 | 1010.2 |
| 20260505034057 | 15 | 0 | 0.0 | 0.0 | 0.00 | 0.00 | 0.00 | 61 | 1010.3 |
| 20260505033559 | 15 | 0 | 0.0 | 0.0 | 0.00 | 0.00 | 0.00 | 60 | 1010.2 |
| 20260505033059 | 16 | 0 | 0.0 | 0.0 | 0.00 | 0.00 | 0.00 | 60 | 1010.2 |
| 20260505032600 | 16 | 0 | 0.0 | 0.0 | 0.00 | 0.00 | 0.00 | 60 | 1010.2 |
| 20260505032059 | 16 | 0 | 0.0 | 0.0 | 0.00 | 0.00 | 0.00 | 58 | 1010.1 |
| 20260505031600 | 16 | 0 | 0.0 | 0.0 | 0.00 | 0.00 | 0.00 | 58 | 1010.1 |
| 20260505031059 | 16 | 0 | 0.0 | 0.0 | 0.00 | 0.00 | 0.00 | 59 | 1010.1 |
| 20260505030601 | 16 | 0 | 0.0 | 1.6 | 0.00 | 0.00 | 0.00 | 58 | 1010.1 |
| 20260505030103 | 16 | 0 | 0.0 | 1.6 | 0.00 | 0.00 | 0.00 | 59 | 1010.1 |
| 20260505025600 | 16 | 0 | 0.0 | 3.2 | 0.00 | 0.00 | 0.00 | 58 | 1010.1 |
| 20260505025059 | 17 | 0 | 0.0 | 3.2 | 0.00 | 0.00 | 0.00 | 58 | 1010.0 |
| 20260505024558 | 17 | 25 | 0.0 | 0.0 | 0.00 | 0.00 | 0.00 | 56 | 1010.0 |
| 20260505024059 | 17 | 0 | 0.0 | 1.6 | 0.00 | 0.00 | 0.00 | 54 | 1010.1 |
| 20260505023600 | 17 | 0 | 0.0 | 1.6 | 0.00 | 0.00 | 0.00 | 55 | 1010.0 |
| 20260505023058 | 17 | 0 | 0.0 | 1.6 | 0.00 | 0.00 | 0.00 | 55 | 1009.9 |
| 20260505022559 | 17 | 0 | 0.0 | 1.6 | 0.00 | 0.00 | 0.00 | 53 | 1010.1 |
| 20260505022059 | 17 | 0 | 0.0 | 1.6 | 0.00 | 0.00 | 0.00 | 56 | 1010.0 |
| 20260505021602 | 18 | 0 | 0.0 | 1.6 | 0.00 | 0.00 | 0.00 | 52 | 1010.0 |
| 20260505021100 | 18 | 0 | 0.0 | 1.6 | 0.00 | 0.00 | 0.00 | 54 | 1009.9 |
| 20260505020600 | 18 | 0 | 0.0 | 1.6 | 0.00 | 0.00 | 0.00 | 52 | 1010.0 |
| 20260505020106 | 18 | 0 | 0.0 | 3.2 | 0.00 | 0.00 | 0.00 | 52 | 1010.0 |
| 20260505015602 | 18 | 0 | 0.0 | 3.2 | 0.00 | 0.00 | 0.00 | 52 | 1009.9 |
| 20260505015103 | 18 | 0 | 0.0 | 3.2 | 0.00 | 0.00 | 0.00 | 52 | 1009.8 |
| 20260505014559 | 18 | 0 | 0.0 | 3.2 | 0.00 | 0.00 | 0.00 | 55 | 1009.7 |
| 20260505014100 | 18 | 0 | 0.0 | 3.2 | 0.00 | 0.00 | 0.00 | 53 | 1009.7 |
| 20260505013558 | 18 | 0 | 0.0 | 0.0 | 0.00 | 0.00 | 0.00 | 51 | 1009.7 |
| 20260505013106 | 18 | 0 | 0.0 | 0.0 | 0.00 | 0.00 | 0.00 | 50 | 1009.6 |
| 20260505012559 | 18 | 0 | 0.0 | 0.0 | 0.00 | 0.00 | 0.00 | 50 | 1009.5 |
| 20260505012059 | 18 | 0 | 0.0 | 0.0 | 0.00 | 0.00 | 0.00 | 50 | 1009.4 |
| 20260505011601 | 19 | 0 | 0.0 | 0.0 | 0.00 | 0.00 | 0.00 | 51 | 1009.4 |
| 20260505011100 | 19 | 0 | 0.0 | 0.0 | 0.00 | 0.00 | 0.00 | 50 | 1009.4 |
| 20260505010557 | 19 | 0 | 0.0 | 0.0 | 0.00 | 0.00 | 0.00 | 47 | 1009.4 |
| 20260505010111 | 20 | 0 | 0.0 | 0.0 | 0.00 | 0.00 | 0.00 | 47 | 1009.3 |
| 20260505005557 | 20 | 0 | 0.0 | 3.2 | 0.00 | 0.00 | 0.00 | 46 | 1009.3 |
| 20260505005059 | 20 | 0 | 0.0 | 3.2 | 0.00 | 0.00 | 0.00 | 48 | 1009.3 |
| 20260505004559 | 20 | 0 | 0.0 | 0.0 | 0.00 | 0.00 | 0.00 | 44 | 1009.3 |
| 20260505004059 | 20 | 0 | 0.0 | 3.2 | 0.00 | 0.00 | 0.00 | 44 | 1009.2 |
| 20260505003559 | 20 | 0 | 0.0 | 3.2 | 0.00 | 0.00 | 0.00 | 45 | 1009.2 |
| 20260505003100 | 21 | 17 | 0.0 | 3.2 | 0.00 | 0.00 | 0.00 | 42 | 1009.2 |
| 20260505002559 | 21 | 0 | 0.0 | 3.2 | 0.00 | 0.00 | 0.00 | 44 | 1009.1 |
| 20260505002100 | 21 | 16 | 0.0 | 4.8 | 0.00 | 0.00 | 0.00 | 43 | 1009.1 |
| 20260505001604 | 21 | 0 | 0.0 | 4.8 | 0.00 | 0.00 | 0.00 | 42 | 1009.0 |
| 20260505001059 | 21 | 326 | 0.0 | 4.8 | 0.00 | 0.00 | 0.00 | 42 | 1009.0 |
| 20260505000559 | 22 | 0 | 0.0 | 4.8 | 0.00 | 0.00 | 0.00 | 41 | 1009.2 |
| 20260504235559 | 22 | 310 | 0.0 | 6.4 | 0.00 | 0.00 | 0.00 | 40 | 1009.1 |
| 20260504235058 | 22 | 308 | 0.0 | 8.0 | 0.00 | 0.00 | 0.00 | 40 | 1008.9 |
| 20260504234559 | 22 | 311 | 0.0 | 8.0 | 0.00 | 0.00 | 0.00 | 39 | 1008.9 |
| 20260504234057 | 22 | 321 | 0.0 | 6.4 | 0.00 | 0.00 | 0.00 | 40 | 1009.0 |
| 20260504233559 | 22 | 0 | 0.0 | 9.7 | 0.00 | 0.00 | 0.00 | 39 | 1009.0 |
| 20260504233108 | 22 | 125 | 1.6 | 9.7 | 0.00 | 0.00 | 0.00 | 39 | 1008.9 |
| 20260504232557 | 22 | 63 | 1.6 | 8.0 | 0.00 | 0.00 | 0.00 | 39 | 1009.0 |
| 20260504232101 | 22 | 0 | 1.6 | 8.0 | 0.00 | 0.00 | 0.00 | 38 | 1008.9 |
| 20260504231604 | 22 | 316 | 0.0 | 6.4 | 0.00 | 0.00 | 0.00 | 38 | 1008.8 |
| 20260504231059 | 22 | 356 | 1.6 | 6.4 | 0.00 | 0.00 | 0.00 | 39 | 1008.9 |
| 20260504230600 | 22 | 148 | 1.6 | 9.7 | 0.00 | 0.00 | 0.00 | 40 | 1008.9 |
| 20260504230100 | 23 | 139 | 3.2 | 9.7 | 0.00 | 0.00 | 0.00 | 39 | 1008.8 |
| 20260504225600 | 23 | 323 | 1.6 | 16.1 | 0.00 | 0.00 | 0.00 | 37 | 1008.9 |
| 20260504225101 | 23 | 0 | 1.6 | 16.1 | 0.00 | 0.00 | 0.00 | 36 | 1008.8 |
| 20260504224601 | 23 | 117 | 3.2 | 14.5 | 0.00 | 0.00 | 0.00 | 36 | 1008.8 |
| 20260504224059 | 23 | 0 | 1.6 | 14.5 | 0.00 | 0.00 | 0.00 | 35 | 1008.6 |
| 20260504223559 | 23 | 158 | 4.8 | 14.5 | 0.00 | 0.00 | 0.00 | 35 | 1008.7 |
| 20260504223058 | 24 | 301 | 4.8 | 14.5 | 0.00 | 0.00 | 0.00 | 33 | 1008.8 |
| 20260504222559 | 24 | 212 | 4.8 | 16.1 | 0.00 | 0.00 | 0.00 | 34 | 1008.8 |
| 20260504222059 | 24 | 140 | 4.8 | 17.7 | 0.00 | 0.00 | 0.00 | 34 | 1008.9 |
| 20260504221600 | 24 | 308 | 4.8 | 17.7 | 0.00 | 0.00 | 0.00 | 34 | 1008.7 |
| 20260504221057 | 24 | 336 | 3.2 | 11.3 | 0.00 | 0.00 | 0.00 | 34 | 1008.8 |
| 20260504220600 | 25 | 150 | 0.0 | 11.3 | 0.00 | 0.00 | 0.00 | 36 | 1008.6 |
| 20260504220058 | 24 | 239 | 3.2 | 20.9 | 0.00 | 0.00 | 0.00 | 36 | 1008.7 |
| 20260504215559 | 25 | 125 | 4.8 | 20.9 | 0.00 | 0.00 | 0.00 | 33 | 1008.9 |
| 20260504215100 | 25 | 152 | 6.4 | 16.1 | 0.00 | 0.00 | 0.00 | 34 | 1008.8 |
| 20260504214558 | 25 | 156 | 3.2 | 16.1 | 0.00 | 0.00 | 0.00 | 35 | 1008.7 |
| 20260504214059 | 25 | 143 | 4.8 | 17.7 | 0.00 | 0.00 | 0.00 | 34 | 1008.8 |
| 20260504213559 | 25 | 137 | 4.8 | 17.7 | 0.00 | 0.00 | 0.00 | 34 | 1008.8 |
| 20260504213057 | 24 | 316 | 3.2 | 12.9 | 0.00 | 0.00 | 0.00 | 36 | 1008.9 |
| 20260504212600 | 23 | 134 | 3.2 | 12.9 | 0.00 | 0.00 | 0.00 | 37 | 1009.0 |
| 20260504212100 | 23 | 0 | 3.2 | 14.5 | 0.00 | 0.00 | 0.00 | 36 | 1008.9 |
| 20260504211556 | 22 | 69 | 3.2 | 14.5 | 0.00 | 0.00 | 0.00 | 36 | 1008.8 |
| 20260504211101 | 23 | 154 | 3.2 | 19.3 | 0.00 | 0.00 | 0.00 | 36 | 1008.9 |
| 20260504210559 | 23 | 123 | 6.4 | 19.3 | 0.00 | 0.00 | 0.00 | 34 | 1008.9 |
| 20260504210107 | 24 | 339 | 4.8 | 16.1 | 0.00 | 0.00 | 0.00 | 35 | 1008.8 |
| 20260504205557 | 25 | 298 | 4.8 | 12.9 | 0.00 | 0.00 | 0.00 | 32 | 1008.7 |
| 20260504205058 | 25 | 144 | 4.8 | 12.9 | 0.00 | 0.00 | 0.00 | 31 | 1008.8 |
| 20260504204607 | 26 | 124 | 4.8 | 12.9 | 0.00 | 0.00 | 0.00 | 30 | 1008.9 |
| 20260504204059 | 25 | 216 | 3.2 | 8.0 | 0.00 | 0.00 | 0.00 | 34 | 1008.8 |
| 20260504203559 | 26 | 152 | 1.6 | 8.0 | 0.00 | 0.00 | 0.00 | 34 | 1008.7 |
| 20260504203108 | 25 | 0 | 3.2 | 8.0 | 0.00 | 0.00 | 0.00 | 34 | 1008.8 |
| 20260504202600 | 25 | 308 | 3.2 | 8.0 | 0.00 | 0.00 | 0.00 | 31 | 1008.9 |
| 20260504202100 | 26 | 152 | 4.8 | 12.9 | 0.00 | 0.00 | 0.00 | 32 | 1008.8 |
| 20260504201600 | 25 | 307 | 1.6 | 12.9 | 0.00 | 0.00 | 0.00 | 33 | 1008.9 |
| 20260504201102 | 25 | 337 | 4.8 | 14.5 | 0.00 | 0.00 | 0.00 | 30 | 1009.0 |
| 20260504200559 | 25 | 325 | 4.8 | 14.5 | 0.00 | 0.00 | 0.00 | 32 | 1009.1 |
| 20260504200100 | 25 | 333 | 3.2 | 22.5 | 0.00 | 0.00 | 0.00 | 30 | 1009.1 |
| 20260504195612 | 25 | 330 | 3.2 | 22.5 | 0.00 | 0.00 | 0.00 | 30 | 1009.2 |
| 20260504195059 | 25 | 23 | 4.8 | 22.5 | 0.00 | 0.00 | 0.00 | 30 | 1009.4 |
| 20260504194613 | 25 | 358 | 4.8 | 12.9 | 0.00 | 0.00 | 0.00 | 31 | 1009.4 |
| 20260504194101 | 25 | 346 | 6.4 | 16.1 | 0.00 | 0.00 | 0.00 | 31 | 1009.4 |
| 20260504193559 | 25 | 137 | 4.8 | 16.1 | 0.00 | 0.00 | 0.00 | 32 | 1009.4 |
| 20260504193102 | 25 | 127 | 1.6 | 8.0 | 0.00 | 0.00 | 0.00 | 32 | 1009.6 |
| 20260504192600 | 25 | 0 | 1.6 | 20.9 | 0.00 | 0.00 | 0.00 | 32 | 1009.7 |
| 20260504192100 | 25 | 21 | 6.4 | 20.9 | 0.00 | 0.00 | 0.00 | 34 | 1009.9 |
| 20260504191600 | 25 | 244 | 4.8 | 11.3 | 0.00 | 0.00 | 0.00 | 33 | 1010.0 |
| 20260504191101 | 25 | 144 | 3.2 | 9.7 | 0.00 | 0.00 | 0.00 | 32 | 1009.9 |
| 20260504190602 | 25 | 285 | 4.8 | 12.9 | 0.00 | 0.00 | 0.00 | 35 | 1010.0 |
| 20260504190129 | 25 | 325 | 3.2 | 12.9 | 0.00 | 0.00 | 0.00 | 35 | 1010.0 |
| 20260504185559 | 25 | 160 | 4.8 | 9.7 | 0.00 | 0.00 | 0.00 | 31 | 1010.2 |
| 20260504185059 | 25 | 0 | 3.2 | 8.0 | 0.00 | 0.00 | 0.00 | 34 | 1010.2 |
| 20260504184559 | 24 | 0 | 1.6 | 8.0 | 0.00 | 0.00 | 0.00 | 32 | 1010.2 |
| 20260504184101 | 24 | 339 | 3.2 | 14.5 | 0.00 | 0.00 | 0.00 | 33 | 1010.4 |
| 20260504183559 | 24 | 319 | 3.2 | 14.5 | 0.00 | 0.00 | 0.00 | 32 | 1010.4 |
| 20260504183101 | 24 | 132 | 1.6 | 12.9 | 0.00 | 0.00 | 0.00 | 33 | 1010.5 |
| 20260504182558 | 23 | 117 | 3.2 | 12.9 | 0.00 | 0.00 | 0.00 | 34 | 1010.6 |
| 20260504182101 | 23 | 332 | 3.2 | 11.3 | 0.00 | 0.00 | 0.00 | 35 | 1010.6 |
| 20260504181559 | 23 | 156 | 3.2 | 12.9 | 0.00 | 0.00 | 0.00 | 38 | 1010.7 |
| 20260504181059 | 23 | 137 | 3.2 | 12.9 | 0.00 | 0.00 | 0.00 | 35 | 1010.9 |
| 20260504180602 | 23 | 328 | 3.2 | 12.9 | 0.00 | 0.00 | 0.00 | 34 | 1010.8 |
| 20260504180059 | 23 | 176 | 1.6 | 12.9 | 0.00 | 0.00 | 0.00 | 39 | 1011.0 |
| 20260504175601 | 23 | 331 | 3.2 | 14.5 | 0.00 | 0.00 | 0.00 | 38 | 1011.1 |
| 20260504175100 | 23 | 158 | 1.6 | 14.5 | 0.00 | 0.00 | 0.00 | 36 | 1011.2 |
| 20260504174608 | 23 | 249 | 3.2 | 9.7 | 0.00 | 0.00 | 0.00 | 36 | 1011.3 |
| 20260504174101 | 23 | 119 | 1.6 | 12.9 | 0.00 | 0.00 | 0.00 | 38 | 1011.4 |
| 20260504173600 | 22 | 133 | 3.2 | 12.9 | 0.00 | 0.00 | 0.00 | 37 | 1011.5 |
| 20260504173103 | 22 | 0 | 3.2 | 11.3 | 0.00 | 0.00 | 0.00 | 38 | 1011.4 |
| 20260504172602 | 22 | 152 | 3.2 | 11.3 | 0.00 | 0.00 | 0.00 | 39 | 1011.5 |
| 20260504172100 | 22 | 318 | 1.6 | 12.9 | 0.00 | 0.00 | 0.00 | 38 | 1011.6 |
| 20260504171601 | 22 | 352 | 4.8 | 12.9 | 0.00 | 0.00 | 0.00 | 36 | 1011.7 |
| 20260504171100 | 22 | 127 | 3.2 | 9.7 | 0.00 | 0.00 | 0.00 | 37 | 1011.7 |
| 20260504170603 | 22 | 153 | 3.2 | 9.7 | 0.00 | 0.00 | 0.00 | 37 | 1011.8 |
| 20260504160107 | 19 | 140 | 3.2 | 8.0 | 0.00 | 0.00 | 0.00 | 45 | 1012.7 |
| 20260504151100 | 17 | 138 | 1.6 | 8.0 | 0.00 | 0.00 | 0.00 | 48 | 1013.1 |
| 20260504150600 | 17 | 138 | 1.6 | 11.3 | 0.00 | 0.00 | 0.00 | 50 | 1013.2 |
| 20260504141058 | 16 | 115 | 0.0 | 4.8 | 0.00 | 0.00 | 0.00 | 48 | 1013.3 |
| 20260504140558 | 15 | 0 | 0.0 | 6.4 | 0.00 | 0.00 | 0.00 | 49 | 1013.3 |
| 20260504130559 | 12 | 0 | 0.0 | 6.4 | 0.00 | 0.00 | 0.00 | 57 | 1013.9 |
| 20260504110602 | 7 | 0 | 0.0 | 3.2 | 0.00 | 0.00 | 0.00 | 80 | 1014.4 |
| 20260504100559 | 8 | 0 | 0.0 | 1.6 | 0.00 | 0.00 | 0.00 | 74 | 1014.2 |
| 20260504081607 | 7 | 0 | 0.0 | 0.0 | 0.00 | 0.00 | 0.00 | 82 | 1014.6 |
| 20260504081100 | 7 | 0 | 0.0 | 0.0 | 0.00 | 0.00 | 0.00 | 82 | 1014.5 |
| 20260504080600 | 7 | 0 | 0.0 | 0.0 | 0.00 | 0.00 | 0.00 | 82 | 1014.5 |
| 20260504060126 | 6 | 0 | 0.0 | 1.6 | 0.00 | 0.00 | 0.00 | 83 | 1015.0 |
| 20260504050600 | 5 | 0 | 0.0 | 0.0 | 0.00 | 0.00 | 0.00 | 82 | 1014.9 |
| 20260504050116 | 5 | 0 | 0.0 | 0.0 | 0.00 | 0.00 | 0.00 | 81 | 1015.0 |
| 20260504045559 | 5 | 0 | 0.0 | 0.0 | 0.00 | 0.00 | 0.00 | 81 | 1014.9 |
| 20260504045059 | 5 | 0 | 0.0 | 0.0 | 0.00 | 0.00 | 0.00 | 81 | 1015.0 |
| 20260504044558 | 5 | 0 | 0.0 | 0.0 | 0.00 | 0.00 | 0.00 | 81 | 1014.9 |
| 20260504044059 | 5 | 0 | 0.0 | 0.0 | 0.00 | 0.00 | 0.00 | 81 | 1014.8 |
| 20260504043600 | 5 | 0 | 0.0 | 0.0 | 0.00 | 0.00 | 0.00 | 82 | 1014.9 |
| 20260504043110 | 5 | 0 | 0.0 | 0.0 | 0.00 | 0.00 | 0.00 | 82 | 1014.9 |
| 20260504042559 | 5 | 0 | 0.0 | 0.0 | 0.00 | 0.00 | 0.00 | 81 | 1014.9 |
| 20260504042100 | 5 | 0 | 0.0 | 0.0 | 0.00 | 0.00 | 0.00 | 81 | 1014.7 |
| 20260504041600 | 5 | 0 | 0.0 | 0.0 | 0.00 | 0.00 | 0.00 | 80 | 1014.8 |
| 20260504041100 | 5 | 0 | 0.0 | 0.0 | 0.00 | 0.00 | 0.00 | 80 | 1014.7 |
| 20260504040600 | 5 | 0 | 0.0 | 0.0 | 0.00 | 0.00 | 0.00 | 79 | 1014.7 |
| 20260504040106 | 5 | 0 | 0.0 | 0.0 | 0.00 | 0.00 | 0.00 | 79 | 1014.9 |
| 20260504035602 | 5 | 0 | 0.0 | 0.0 | 0.00 | 0.00 | 0.00 | 79 | 1015.0 |